Tracking 29932 objects as of 4-Dec-2024
HD Live streaming from Space Station
objects crossing your sky now

STARLINK-30108

Track STARLINK-30108 now!
10-day predictions
STARLINK-30108 is classified as:


NORAD ID: 56299
Int'l Code: 2023-056P
Perigee: 565.2 km
Apogee: 567.2 km
Inclination: 43.0 °
Period: 95.8 minutes
Semi major axis: 6937 km
RCS: Unknown
Launch date: April 19, 2023
Source: United States (US)
Launch site: AIR FORCE EASTERN TEST RANGE (AFETR)
Your satellite tracking list
Your tracking list is empty




NASA's NSSDC Master Catalog

Two Line Element Set (TLE):
1 56299U 23056P   24338.84716201  .00001512  00000-0  12695-3 0  9991
2 56299  43.0017 181.9537 0001487 262.6316  97.4357 15.02537683 90248
Source of the keplerian elements: AFSPC